SCP
0 0 0 0 0 0 0 0 0 0 0 0 0 0 0 0 0 0 0 0 0 0 0 0 -0 -0 -0 0 0 0 0 1 1 1 1 1 1 1 1 1 1 1 1
0 0 0 0 0 0 0 0 0 0 0 0 0 0 0 0 0 0 0 0 0 0 0 0 0 0 0 0 0 0 0 0 0 1 2 1 1 1 1 1 1 1 0
0 0 0 0 0 0 0 0 0 0 0 0 0 0 0 0 0 0 0 0 0 0 0 0 0 0 0 0 0 0 0 0 0 1 2 2 2 1 1 1 1 1 1
0 0 0 0 0 0 0 0 0 0 0 0 0 0 0 0 0 0 0 0 0 0 0 0 0 0 0 -0 0 0 0 0 0 1 1 2 2 1 1 1 1 1 1
0 0 0 0 0 0 0 0 0 0 0 0 0 0 0 0 0 0 0 -0 0 0 0 0 0 0 0 0 0 0 0 0 0 1 1 1 1 2 2 1 1 1 1
0 0 0 0 0 0 0 0 0 0 0 0 0 0 0 0 0 0 0 0 -0 0 0 0 0 0 0 0 0 0 0 0 0 0 1 1 1 1 1 1 1 1 1
0 0 0 0 0 0 0 0 0 0 0 0 0 0 0 0 0 0 0 0 0 0 0 0 0 0 0 0 0 0 -0 0 0 0 0 1 1 1 1 1 1 1 1
0 0 0 0 0 0 0 0 0 0 0 0 0 0 0 0 0 0 0 0 0 0 0 0 0 0 0 0 1 1 0 0 0 0 0 0 1 1 1 1 1 1 1
0 0 0 0 0 0 0 0 0 0 0 0 0 0 0 0 0 0 0 0 0 0 0 0 0 0 0 0 0 0 0 -0 -0 0 0 0 0 0 0 1 1 1 1
0 0 0 0 0 0 0 0 0 0 0 0 0 0 0 0 0 -0 0 0 0 0 0 0 0 0 0 0 0 0 0 0 0 0 0 0 0 0 0 1 1 1 1
0 0 0 0 0 0 0 0 0 0 0 0 0 0 0 0 0 0 -0 -0 0 0 0 0 0 0 0 0 0 0 0 0 0 0 0 0 0 0 0 0 1 1 1
0 0 0 0 0 0 0 0 0 0 0 0 0 0 0 0 0 0 0 0 0 0 0 0 0 0 0 0 0 0 0 0 0 0 0 0 0 0 0 0 0 1 1
0 0 0 0 0 0 0 0 0 0 0 -0 0 0 0 0 0 0 0 0 0 0 0 0 0 0 0 0 0 0 0 0 0 0 0 0 0 0 0 0 0 0 1
0 0 0 0 0 0 0 0 0 0 0 0 -0 0 0 0 0 0 0 0 0 0 0 0 0 0 0 0 0 0 0 0 0 0 0 0 0 0 0 0 1 1 1
0 0 0 0 0 0 0 0 0 0 0 0 -0 0 0 0 0 0 0 0 0 0 0 0 0 0 0 0 0 0 0 0 0 0 0 0 0 0 0 0 0 0 0
0 0 0 0 0 0 0 0 0 0 0 -0 -0 0 0 0 0 0 0 0 0 0 0 0 0 0 0 0 0 0 0 0 0 0 0 0 0 0 0 0 0 0 0
0 0 0 0 0 0 0 0 0 0 -0 -0 0 -0 -0 -0 0 0 0 0 0 0 0 0 0 0 0 0 0 0 0 0 0 0 0 0 0 0 0 0 0 0 0
0 0 0 0 0 0 0 0 0 -0 0 -0 0 -0 0 -0 -0 -0 -0 -0 0 0 0 0 0 0 0 0 0 0 0 0 0 0 0 0 0 0 0 0 0 0 0
0 0 0 0 0 0 0 0 0 0 -0 -0 -0 -0 0 -0 -0 -0 -0 -0 -0 -0 0 0 -0 0 0 0 0 0 0 0 0 0 0 0 0 0 0 0 0 0 0
0 0 0 0 0 0 0 0 0 0 0 0 0 0 -0 -0 -0 0 -0 -0 -0 -0 0 0 -0 -0 0 0 0 0 0 0 0 0 0 0 0 0 0 0 0 0 0
0 0 0 0 0 0 0 0 0 0 0 0 0 -0 -0 -0 -0 -0 -0 0 -0 0 0 0 -0 -0 0 0 0 0 0 0 0 0 0 0 0 0 0 0 0 0 0
0 0 0 0 0 0 0 0 0 0 0 0 0 0 0 0 -0 -0 -0 0 0 0 0 0 0 -0 -0 -0 -0 0 0 0 0 0 0 0 0 0 0 0 0 0 0
0 0 0 0 0 0 0 0 0 0 0 0 0 0 0 -0 -0 -0 0 -0 -0 0 0 0 0 0 0 0 0 0 0 0 0 0 0 0 0 0 0 0 0 0 0
0 0 0 0 0 0 0 0 0 0 0 0 0 0 -0 -0 -0 -0 -0 -0 -0 0 0 0 -0 -0 0 0 0 0 0 0 0 0 0 0 0 0 0 0 0 0 0
0 0 0 0 0 0 0 0 -0 0 -0 -0 -0 0 -0 -0 -0 0 -0 0 -0 -0 0 0 0 0 0 -0 0 0 0 0 0 0 0 0 0 0 0 0 0 0 0
0 0 0 0 0 0 0 -0 -0 0 0 0 -0 -0 -0 -0 -0 0 0 0 0 0 0 -0 -0 -0 0 -0 0 0 0 0 0 0 0 0 0 0 0 0 0 0 0
Wind_Speed_500mb
21 20 23 28 26 33 30 36 40 35 34 27 29 32 29 21 24 25 27 25 25 24 26 26 29 31 34 32 31 29 36 43 47 52 54 54 53 51 51 51 51 51 53
27 29 28 30 34 35 35 31 33 37 30 30 38 31 33 32 34 31 26 34 38 35 33 32 31 29 30 31 32 31 28 37 43 46 50 54 55 54 54 53 51 52 53
35 34 39 38 36 33 31 29 36 42 41 43 45 48 43 41 43 45 41 34 34 37 39 47 43 33 30 34 33 33 29 28 38 44 45 49 54 56 56 56 54 54 55
43 52 47 39 38 33 37 34 38 39 39 40 51 45 46 50 53 54 53 48 44 44 45 42 45 46 37 33 34 31 29 31 29 39 42 45 50 54 57 57 57 56 57
40 38 43 42 41 40 34 33 29 33 41 35 36 34 37 42 48 55 61 64 60 53 48 42 37 41 44 42 37 39 31 31 29 34 38 40 46 51 54 57 58 59 59
41 48 42 46 42 42 33 35 32 35 34 38 39 36 43 44 45 49 54 60 67 65 60 57 52 47 43 42 35 29 30 27 31 37 36 38 39 46 50 53 57 57 57
38 46 43 41 45 41 37 37 38 42 43 40 41 44 49 49 50 41 36 47 59 61 69 71 65 61 44 43 42 33 35 36 35 40 37 37 39 37 44 51 52 55 56
44 39 41 43 39 45 42 44 47 50 49 43 38 35 34 58 34 45 38 39 38 42 51 58 59 53 40 37 45 42 34 37 37 35 35 34 35 39 36 41 49 52 53
36 33 38 42 46 47 49 45 51 51 52 48 37 33 25 27 68 64 56 42 30 34 33 31 37 48 47 42 34 36 32 26 28 30 31 32 30 35 39 39 39 45 50
32 31 42 44 43 45 44 52 56 59 44 42 46 48 35 40 54 61 60 53 46 33 36 25 23 32 40 36 33 34 32 25 25 29 34 29 25 23 31 40 42 40 43
45 41 42 56 54 48 46 44 37 39 41 44 40 47 46 45 47 52 67 62 50 37 26 36 28 31 40 40 40 34 34 35 34 28 25 31 35 35 33 34 42 43 41
39 43 48 51 46 51 54 55 58 58 61 68 55 52 59 53 48 45 50 63 57 46 33 30 36 40 38 44 40 37 41 38 38 33 30 29 22 25 31 30 35 44 46
55 59 56 57 67 62 58 52 45 47 50 51 55 52 51 49 43 43 45 52 48 53 41 26 27 28 42 51 42 41 45 45 40 40 37 33 28 25 25 30 35 39 44
43 57 65 64 64 55 47 45 46 41 37 40 42 37 34 36 38 42 45 45 46 34 43 33 24 25 31 36 40 47 45 39 42 42 40 38 37 34 32 27 32 38 41
54 54 61 63 60 58 53 43 42 43 43 39 34 30 32 33 35 37 39 39 41 30 32 32 26 22 25 36 42 48 45 44 41 40 41 44 46 41 39 35 31 36 42
57 60 62 62 60 55 51 48 41 35 40 39 40 36 30 32 33 37 42 42 43 45 44 37 26 22 19 22 26 30 36 34 36 37 39 40 41 44 43 39 34 34 38
55 51 56 57 54 47 41 40 30 27 31 31 30 30 32 35 39 42 41 39 41 41 46 40 32 26 24 25 25 29 25 32 31 35 29 32 37 40 39 38 36 34 38
44 45 52 50 43 38 35 27 23 20 26 26 29 36 38 40 43 41 39 39 40 38 40 37 29 23 21 22 25 26 30 32 31 27 28 32 36 40 42 44 43 40 39
39 41 44 42 37 34 33 27 21 23 27 31 36 39 42 38 38 36 36 37 35 35 37 36 32 25 23 24 25 30 31 35 40 41 45 49 50 45 42 44 48 45 41
34 42 43 40 32 31 26 26 25 23 27 30 30 32 33 32 29 24 27 28 29 32 35 37 34 31 29 28 28 28 31 32 34 40 45 47 44 45 45 40 42 43 40
32 37 36 34 30 28 28 29 29 30 30 23 18 20 26 18 19 21 23 24 28 31 32 35 36 36 34 37 40 37 36 35 37 38 41 41 41 46 50 46 40 38 35
28 32 35 35 34 29 25 25 26 25 21 16 12 6 7 4 7 9 13 15 21 25 27 29 32 39 46 43 41 42 37 32 30 24 23 28 29 32 37 36 32 32 34
31 33 34 37 36 37 33 28 21 17 11 10 7 5 2 1 4 10 12 14 21 28 34 35 36 30 25 20 18 23 27 27 25 22 22 22 27 29 29 31 32 30 28
33 36 38 39 40 37 36 24 13 12 8 10 9 8 6 8 10 12 14 17 13 14 17 20 20 20 21 12 12 14 19 18 16 21 19 25 23 30 29 28 21 17 21
30 34 37 40 44 42 30 10 4 4 5 2 3 5 6 7 13 18 14 7 3 1 2 4 7 9 11 9 14 15 18 28 27 29 30 29 44 43 39 32 25 20 19
32 35 39 41 45 36 13 10 8 7 9 11 6 4 2 3 3 5 6 4 6 12 15 17 13 9 6 10 15 12 10 25 25 31 37 50 42 48 38 34 29 23 19
Wind_Direction_500mb
275 263 284 297 292 294 285 291 292 291 286 288 288 297 304 291 295 290 286 284 293 288 285 285 296 292 282 272 280 291 270 253 246 240 240 239 237 235 231 230 228 228 229
271 264 272 288 280 290 287 294 291 295 285 281 286 287 281 271 281 283 287 277 273 275 278 281 287 294 278 277 276 280 288 259 249 246 241 239 238 237 236 233 230 230 230
266 271 267 277 282 275 266 291 292 294 290 290 288 287 281 272 269 274 276 271 270 274 278 273 272 278 280 276 281 271 281 281 255 249 245 241 240 239 237 234 233 231 232
264 261 273 283 289 270 276 291 300 285 285 298 299 291 285 275 274 269 269 268 266 269 272 274 269 267 273 275 277 267 269 286 268 254 248 243 239 239 239 237 236 233 232
278 282 281 276 278 275 281 288 303 297 299 302 318 312 309 299 291 274 270 267 264 263 261 261 255 259 266 270 269 265 257 274 280 263 250 246 242 240 239 238 239 239 236
279 275 270 271 272 271 280 287 297 300 290 300 308 314 322 315 304 294 281 273 267 264 262 260 254 259 258 265 267 261 252 265 281 282 259 249 246 241 239 239 239 240 239
291 285 273 269 270 273 275 280 288 297 292 287 298 304 313 317 319 306 285 281 272 267 262 264 264 255 252 256 258 251 243 262 274 269 273 249 246 244 240 238 239 241 241
291 278 277 272 272 275 279 285 281 287 287 283 288 305 316 315 321 324 293 285 286 264 262 266 260 251 239 250 255 253 250 270 267 255 266 261 247 245 243 241 240 240 242
296 270 266 261 269 276 276 270 275 279 279 275 277 298 311 303 316 316 310 301 295 280 270 271 259 237 237 251 244 242 259 262 257 255 257 260 257 250 245 242 243 241 240
313 292 270 280 287 282 278 275 279 279 265 270 275 283 295 297 301 308 302 295 303 300 260 263 248 227 223 228 237 245 244 255 252 251 254 256 256 259 254 247 243 242 241
293 294 298 297 298 295 289 281 284 285 278 274 280 288 295 291 293 285 290 293 296 290 284 258 253 233 230 235 237 246 243 256 250 250 252 250 257 264 261 250 244 242 242
305 312 311 309 310 307 301 294 286 281 282 287 288 278 288 286 282 280 278 288 294 296 292 258 247 240 238 235 241 246 258 250 249 249 253 257 264 258 258 257 244 240 241
314 317 324 318 318 314 302 293 288 284 286 280 275 273 276 272 273 276 278 281 286 295 293 275 245 240 235 245 241 251 253 249 243 248 257 255 250 260 259 251 250 244 240
328 330 323 313 311 309 308 295 285 288 288 280 275 274 277 271 271 272 275 277 281 283 288 279 263 245 246 246 248 245 241 251 249 249 253 253 253 254 261 269 255 246 242
329 314 310 310 307 302 304 298 287 277 281 279 281 267 275 270 269 272 272 272 271 275 284 294 278 259 255 247 243 241 243 245 246 255 257 249 247 245 252 263 261 252 242
321 323 325 324 318 310 306 299 286 274 278 275 276 276 268 271 267 274 275 267 267 262 265 273 269 265 247 237 235 238 242 241 246 256 247 247 242 240 250 254 254 252 245
327 331 327 324 324 323 316 313 289 273 284 283 265 265 269 270 272 278 272 264 259 255 257 274 271 266 257 244 245 245 249 246 239 245 245 233 237 242 246 244 249 250 247
333 334 330 323 323 328 332 326 305 278 287 281 275 272 271 273 275 274 265 254 253 249 253 266 272 266 256 251 251 245 244 245 247 247 239 244 250 251 247 247 251 256 248
335 333 335 335 333 335 337 327 304 291 277 280 280 277 277 275 271 269 254 249 244 241 245 258 271 266 263 263 255 259 256 252 251 249 251 252 253 252 248 246 248 249 248
335 334 334 332 344 0 0 344 329 312 297 295 286 276 271 268 270 255 241 243 239 239 244 254 263 267 268 265 263 261 268 263 260 256 251 249 245 244 244 247 242 241 245
329 334 338 330 332 342 354 342 338 325 315 308 290 283 281 256 252 242 245 249 239 237 244 251 260 264 264 266 268 268 269 261 265 266 250 245 247 246 238 237 233 238 227
344 342 345 343 342 333 334 343 330 320 315 303 299 316 90 178 210 226 251 256 241 248 252 248 256 266 274 270 263 258 249 249 260 253 234 232 229 224 215 214 221 210 201
333 337 338 341 338 331 327 337 338 330 307 277 297 283 150 169 269 251 254 260 259 258 257 260 269 267 269 272 251 229 228 242 242 230 197 183 199 198 193 194 193 193 201
327 331 333 336 338 337 324 327 342 331 316 286 262 226 229 270 282 251 273 292 275 262 241 234 251 261 268 255 243 232 231 218 197 181 189 150 172 155 156 164 159 179 206
324 330 336 334 334 334 319 307 80 2 322 292 170 202 244 276 279 275 270 273 269 147 207 257 263 262 270 224 203 212 207 183 164 171 176 161 145 143 143 139 130 132 136
317 321 328 331 332 330 307 109 118 94 119 99 41 357 256 328 297 233 159 97 107 105 90 96 78 62 72 123 140 144 203 179 175 151 161 146 148 134 111 118 123 120 122
Wind_Speed_850mb
21 20 23 28 26 33 30 36 40 35 34 27 29 32 29 21 24 25 27 25 25 24 26 26 29 31 34 32 31 29 36 43 47 52 54 54 53 51 51 51 51 51 53
27 29 28 30 34 35 35 31 33 37 30 30 38 31 33 32 34 31 26 34 38 35 33 32 31 29 30 31 32 31 28 37 43 46 50 54 55 54 54 53 51 52 53
35 34 39 38 36 33 31 29 36 42 41 43 45 48 43 41 43 45 41 34 34 37 39 47 43 33 30 34 33 33 29 28 38 44 45 49 54 56 56 56 54 54 55
43 52 47 39 38 33 37 34 38 39 39 40 51 45 46 50 53 54 53 48 44 44 45 42 45 46 37 33 34 31 29 31 29 39 42 45 50 54 57 57 57 56 57
40 38 43 42 41 40 34 33 29 33 41 35 36 34 37 42 48 55 61 64 60 53 48 42 37 41 44 42 37 39 31 31 29 34 38 40 46 51 54 57 58 59 59
41 48 42 46 42 42 33 35 32 35 34 38 39 36 43 44 45 49 54 60 67 65 60 57 52 47 43 42 35 29 30 27 31 37 36 38 39 46 50 53 57 57 57
38 46 43 41 45 41 37 37 38 42 43 40 41 44 49 49 50 41 36 47 59 61 69 71 65 61 44 43 42 33 35 36 35 40 37 37 39 37 44 51 52 55 56
44 39 41 43 39 45 42 44 47 50 49 43 38 35 34 58 34 45 38 39 38 42 51 58 59 53 40 37 45 42 34 37 37 35 35 34 35 39 36 41 49 52 53
36 33 38 42 46 47 49 45 51 51 52 48 37 33 25 27 68 64 56 42 30 34 33 31 37 48 47 42 34 36 32 26 28 30 31 32 30 35 39 39 39 45 50
32 31 42 44 43 45 44 52 56 59 44 42 46 48 35 40 54 61 60 53 46 33 36 25 23 32 40 36 33 34 32 25 25 29 34 29 25 23 31 40 42 40 43
45 41 42 56 54 48 46 44 37 39 41 44 40 47 46 45 47 52 67 62 50 37 26 36 28 31 40 40 40 34 34 35 34 28 25 31 35 35 33 34 42 43 41
39 43 48 51 46 51 54 55 58 58 61 68 55 52 59 53 48 45 50 63 57 46 33 30 36 40 38 44 40 37 41 38 38 33 30 29 22 25 31 30 35 44 46
55 59 56 57 67 62 58 52 45 47 50 51 55 52 51 49 43 43 45 52 48 53 41 26 27 28 42 51 42 41 45 45 40 40 37 33 28 25 25 30 35 39 44
43 57 65 64 64 55 47 45 46 41 37 40 42 37 34 36 38 42 45 45 46 34 43 33 24 25 31 36 40 47 45 39 42 42 40 38 37 34 32 27 32 38 41
54 54 61 63 60 58 53 43 42 43 43 39 34 30 32 33 35 37 39 39 41 30 32 32 26 22 25 36 42 48 45 44 41 40 41 44 46 41 39 35 31 36 42
57 60 62 62 60 55 51 48 41 35 40 39 40 36 30 32 33 37 42 42 43 45 44 37 26 22 19 22 26 30 36 34 36 37 39 40 41 44 43 39 34 34 38
55 51 56 57 54 47 41 40 30 27 31 31 30 30 32 35 39 42 41 39 41 41 46 40 32 26 24 25 25 29 25 32 31 35 29 32 37 40 39 38 36 34 38
44 45 52 50 43 38 35 27 23 20 26 26 29 36 38 40 43 41 39 39 40 38 40 37 29 23 21 22 25 26 30 32 31 27 28 32 36 40 42 44 43 40 39
39 41 44 42 37 34 33 27 21 23 27 31 36 39 42 38 38 36 36 37 35 35 37 36 32 25 23 24 25 30 31 35 40 41 45 49 50 45 42 44 48 45 41
34 42 43 40 32 31 26 26 25 23 27 30 30 32 33 32 29 24 27 28 29 32 35 37 34 31 29 28 28 28 31 32 34 40 45 47 44 45 45 40 42 43 40
32 37 36 34 30 28 28 29 29 30 30 23 18 20 26 18 19 21 23 24 28 31 32 35 36 36 34 37 40 37 36 35 37 38 41 41 41 46 50 46 40 38 35
28 32 35 35 34 29 25 25 26 25 21 16 12 6 7 4 7 9 13 15 21 25 27 29 32 39 46 43 41 42 37 32 30 24 23 28 29 32 37 36 32 32 34
31 33 34 37 36 37 33 28 21 17 11 10 7 5 2 1 4 10 12 14 21 28 34 35 36 30 25 20 18 23 27 27 25 22 22 22 27 29 29 31 32 30 28
33 36 38 39 40 37 36 24 13 12 8 10 9 8 6 8 10 12 14 17 13 14 17 20 20 20 21 12 12 14 19 18 16 21 19 25 23 30 29 28 21 17 21
30 34 37 40 44 42 30 10 4 4 5 2 3 5 6 7 13 18 14 7 3 1 2 4 7 9 11 9 14 15 18 28 27 29 30 29 44 43 39 32 25 20 19
32 35 39 41 45 36 13 10 8 7 9 11 6 4 2 3 3 5 6 4 6 12 15 17 13 9 6 10 15 12 10 25 25 31 37 50 42 48 38 34 29 23 19
Wind_Direction_850mb
275 263 284 297 292 294 285 291 292 291 286 288 288 297 304 291 295 290 286 284 293 288 285 285 296 292 282 272 280 291 270 253 246 240 240 239 237 235 231 230 228 228 229
271 264 272 288 280 290 287 294 291 295 285 281 286 287 281 271 281 283 287 277 273 275 278 281 287 294 278 277 276 280 288 259 249 246 241 239 238 237 236 233 230 230 230
266 271 267 277 282 275 266 291 292 294 290 290 288 287 281 272 269 274 276 271 270 274 278 273 272 278 280 276 281 271 281 281 255 249 245 241 240 239 237 234 233 231 232
264 261 273 283 289 270 276 291 300 285 285 298 299 291 285 275 274 269 269 268 266 269 272 274 269 267 273 275 277 267 269 286 268 254 248 243 239 239 239 237 236 233 232
278 282 281 276 278 275 281 288 303 297 299 302 318 312 309 299 291 274 270 267 264 263 261 261 255 259 266 270 269 265 257 274 280 263 250 246 242 240 239 238 239 239 236
279 275 270 271 272 271 280 287 297 300 290 300 308 314 322 315 304 294 281 273 267 264 262 260 254 259 258 265 267 261 252 265 281 282 259 249 246 241 239 239 239 240 239
291 285 273 269 270 273 275 280 288 297 292 287 298 304 313 317 319 306 285 281 272 267 262 264 264 255 252 256 258 251 243 262 274 269 273 249 246 244 240 238 239 241 241
291 278 277 272 272 275 279 285 281 287 287 283 288 305 316 315 321 324 293 285 286 264 262 266 260 251 239 250 255 253 250 270 267 255 266 261 247 245 243 241 240 240 242
296 270 266 261 269 276 276 270 275 279 279 275 277 298 311 303 316 316 310 301 295 280 270 271 259 237 237 251 244 242 259 262 257 255 257 260 257 250 245 242 243 241 240
313 292 270 280 287 282 278 275 279 279 265 270 275 283 295 297 301 308 302 295 303 300 260 263 248 227 223 228 237 245 244 255 252 251 254 256 256 259 254 247 243 242 241
293 294 298 297 298 295 289 281 284 285 278 274 280 288 295 291 293 285 290 293 296 290 284 258 253 233 230 235 237 246 243 256 250 250 252 250 257 264 261 250 244 242 242
305 312 311 309 310 307 301 294 286 281 282 287 288 278 288 286 282 280 278 288 294 296 292 258 247 240 238 235 241 246 258 250 249 249 253 257 264 258 258 257 244 240 241
314 317 324 318 318 314 302 293 288 284 286 280 275 273 276 272 273 276 278 281 286 295 293 275 245 240 235 245 241 251 253 249 243 248 257 255 250 260 259 251 250 244 240
328 330 323 313 311 309 308 295 285 288 288 280 275 274 277 271 271 272 275 277 281 283 288 279 263 245 246 246 248 245 241 251 249 249 253 253 253 254 261 269 255 246 242
329 314 310 310 307 302 304 298 287 277 281 279 281 267 275 270 269 272 272 272 271 275 284 294 278 259 255 247 243 241 243 245 246 255 257 249 247 245 252 263 261 252 242
321 323 325 324 318 310 306 299 286 274 278 275 276 276 268 271 267 274 275 267 267 262 265 273 269 265 247 237 235 238 242 241 246 256 247 247 242 240 250 254 254 252 245
327 331 327 324 324 323 316 313 289 273 284 283 265 265 269 270 272 278 272 264 259 255 257 274 271 266 257 244 245 245 249 246 239 245 245 233 237 242 246 244 249 250 247
333 334 330 323 323 328 332 326 305 278 287 281 275 272 271 273 275 274 265 254 253 249 253 266 272 266 256 251 251 245 244 245 247 247 239 244 250 251 247 247 251 256 248
335 333 335 335 333 335 337 327 304 291 277 280 280 277 277 275 271 269 254 249 244 241 245 258 271 266 263 263 255 259 256 252 251 249 251 252 253 252 248 246 248 249 248
335 334 334 332 344 0 0 344 329 312 297 295 286 276 271 268 270 255 241 243 239 239 244 254 263 267 268 265 263 261 268 263 260 256 251 249 245 244 244 247 242 241 245
329 334 338 330 332 342 354 342 338 325 315 308 290 283 281 256 252 242 245 249 239 237 244 251 260 264 264 266 268 268 269 261 265 266 250 245 247 246 238 237 233 238 227
344 342 345 343 342 333 334 343 330 320 315 303 299 316 90 178 210 226 251 256 241 248 252 248 256 266 274 270 263 258 249 249 260 253 234 232 229 224 215 214 221 210 201
333 337 338 341 338 331 327 337 338 330 307 277 297 283 150 169 269 251 254 260 259 258 257 260 269 267 269 272 251 229 228 242 242 230 197 183 199 198 193 194 193 193 201
327 331 333 336 338 337 324 327 342 331 316 286 262 226 229 270 282 251 273 292 275 262 241 234 251 261 268 255 243 232 231 218 197 181 189 150 172 155 156 164 159 179 206
324 330 336 334 334 334 319 307 80 2 322 292 170 202 244 276 279 275 270 273 269 147 207 257 263 262 270 224 203 212 207 183 164 171 176 161 145 143 143 139 130 132 136
317 321 328 331 332 330 307 109 118 94 119 99 41 357 256 328 297 233 159 97 107 105 90 96 78 62 72 123 140 144 203 179 175 151 161 146 148 134 111 118 123 120 122